Погода Иваново

Погода Иваново : погода сейчас, прогноз погоды и архив. Всё, что Вы хотите узнать о погоде Иваново!

Хотите узнать прогноз погоды Иваново? Тогда Вам сюда: Погода Иваново

Поиск расширенной информации на нашем сайте:

Другие новости

Новости СМИ2

Главная страница сайта

Новости сайта

02.10.2013

Напоминаем, что на нашем новом сайте вы можете получить высокодетализированные прогнозы погоды по пунктам России, СНГ и мира (включающие важные для авиации метеовеличины, такие как направление и скорость ветра, видимость, явления погоды, количество и форма облачности, нижняя и верхняя граница облачности), а также ознакомиться с разнообразными материалами по авиационной метеорологии и подборкой полезных ссылок на эту тему.

Сайт Метеоцентр.Азия посвящён разработке технологий оптимизации авиаметеорологического обслуживания, включая проектирование и перспективное создание нескольких автоматизированных авиаметеорологических систем:
- система выпуска высокодетальных прогностических карт явлений погоды для нижнего воздушного пространства по России и ближнему зарубежью;
- система верификации прогнозов TAF (выпускаемых синоптиками официальных АМСГ РФ и ближнего зарубежья) и AUTOTAF (выпускаемых сайтом Метеоцентр.Азия) - выявление ошибок, онлайн-сопоставление с фактической погодой METAR, автоматическое внесение коррективов в прогнозы при резком отклонении фактической погоды от прогноза, подсчёт оправдываемости прогнозов по элементам и в целом;
- система обработки, анализа и отображения авиаметеорологической информации для применения провайдерами метеорологической информации.

Рекомендуем: Смотрите распродажа мебели кафе на нашем сайте.

Погода Иваново - сегодня

Время (UTC), дата Ветер
(°,м/с) 
Видим.   Явления Облачность Т
(°С)
Тd
(°С)
f(%) Тe
(°С)
Pmin
(гПа)
dP
(гПа)
Po
(мм)
O2
(г/м3)
Тmin Tmax R s Состояние
почвы
03 24.02.17 180 (Ю) 10 км    10/10 270 м 
[Sc]
-2.2 -3.1 94 -2  991.3  0.9  732  298  -3.9    38  равномерный
мокрый или
старый снег
100% 
06 24.02.17 180 (Ю) 2400 м  дымка  10/10 120 м 
[St]
-2.2 -2.6 97 -3  992.5  1.2  733  298           
09 24.02.17 180 (Ю) 10 км    10/6 240 м средняя 
[Sc|Ac und]
+1 -0.9 87 -1  992.4  0.1  733  294           
12 24.02.17 160 (Ю) 10 км    10/6 360 м средняя, верхняя 
[Sc|Ac trans|Cs]
+2.1 -0.5 83 991.3  -1.1  732  293           
15 24.02.17 130 (ЮВ) 3200 м  слаб. ливневой снег  10/10 210 м кучево-дожд. 
[Cb calv]
+0.7 -0.1 94 -3  988.6  -2.7  730  293    +2.1  0.6     
18 24.02.17 140 (ЮВ) 1900 м  ливневой снег  10/10 150 м кучево-дожд. 
[Cb calv]
+0.2 -0.2 97 -3  985.7  -2.9  728  293           
21 24.02.17 170 (Ю) 4000 м  слаб. ливневой снег  10/10 180 м кучево-дожд. 
[Cb calv]
+0.5 +0.2 98 -1  984.3  -1.4  727  292           
00 25.02.17 240 (ЮЗ) 10 км  в посл. час ливневой дождь  10/10 180 м кучево-дожд. 
[Cb calv]
+1.7 +1.1 96 984.7  0.5  727  291           
03 25.02.17 280 (З) 7-12{14}  10 км  в посл. час ливневой снег  10/10 400 м кучево-дожд. 
[Cb calv]
-0.4 -2.3 87 -4  988.9  4.1  730  295  -0.4    39  равномерный
мокрый или
старый снег
100% 
06 25.02.17 280 (З) 6{12}  10 км  {ливн. осадки}  10/8 600 м средняя 
[Sc|Ac und]
-3 -7.9 69 -7  993.1  3.9  733  299  -3         
09 25.02.17 250 (З) 4{10}  10 км    8/5 750 м верхняя 
[Cu hum|Ci fib]
-2.4 -7.8 66 -5  994.5  1.4  734  299           
12 25.02.17 250 (З) 10 км    8/8 750 м 
[Sc]
-1.4 -7.8 62 -4  994.9  0.4  734  298           
15 25.02.17 260 (З) 2{10}  6000 м  слаб. снег  10/10 600 м 
[Sc]
-3.3 -5.2 87 -4  995.5  0.6  735  300    -0.4  0.0     
18 25.02.17 270 (З) 4{12}  10 км  {снег}  10/10 600 м 
[Sc]
-5.2 -9.6 71 -8  997.6  1.9  736  303           
21 25.02.17 270 (З) 10 км    6/6 900 м 
[Sc]
-5.6 -9.9 72 -10  998.6  737  304           
00 26.02.17 260 (З) 10 км    4/0 верхняя 
[Ci fib]
-5.8 -10.4 70 -9  999.4  0.8  738  305           
03 26.02.17 280 (З) 7-11{11}  10 км    10/8 600 м средняя 
[Sc|Ac und]
-6.9 -11.5 70 -12  1001.5  739  307  -6.9    0.0  39  равномерный
сухой снег
100% 
06 26.02.17 250 (З) 5{11}  10 км    8/0 средняя 
[Ac trans]
-8 -11.4 76 -12  1003.1  1.5  740  308  -8.7         
09 26.02.17 250 (З) 5{13}  10 км  {снег}  10/4 1000 м средняя 
[Sc|Ac und]
-4.7 -9.2 71 -9  1003.4  0.5  741  305           
12 26.02.17 240 (ЮЗ) 5{10}  10 км  в посл. час ливневой снег  10/10 360 м кучево-дожд. 
[Cb calv]
-3.4 -8.3 69 -7  1003  -0.3  740  303           
15 26.02.17 240 (ЮЗ) 10 км    10/5 600 м средняя 
[Sc|Ac und]
-3.2 -9 64 -6  1003.1  0.1  740  303    -3.2  0.0     
18 26.02.17 220 (ЮЗ) 3{10}  10 км    6/0 средняя, верхняя 
[Ac trans|Ci fib]
-4.8 -10.6 64 -7  1003.2  740  305           
21 26.02.17 210 (ЮЗ) 10 км    10/0 средняя, верхняя 
[Ac trans|Ci fib]
-5.4 -10.6 67 -8  1003.2  -0.8  740  305           
00 27.02.17 140 (ЮВ) 4000 м  слаб. снег  10/6 480 м средняя 
[Sc|As op]
-5.5 -6.5 93 -7  1000.5  -1.8  739  304           
03 27.02.17 120 (ЮВ) 4100 м  снег  10/10 330 м 
[Ns]
-5.4 -6.1 95 -5  999.8  -0.7  738  304  -5.7    38  равномерный
сухой снег
100% 
Время (UTC), дата Ветер
(°,м/с) 
Видим.   Явления Облачность Т
(°С)
Тd
(°С)
f(%) Тe
(°С)
Pmin
(гПа)
dP
(гПа)
Po
(мм)
O2
(г/м3)
Тmin Tmax R s Состояние
почвы

Для получения пояснительной информации подведите курсор к названию столбца.

ПОГОДА Иваново - архив

Всё, что Вы хотите узнать о погоде Иваново - удобно и подробно!

Выберите нужную дату (начиная с 1 января 2015* года) и нажмите кнопку "Найти".
Будут отображены архивные сводки погоды по пункту Иваново, начиная с указанной даты.


Отображать данные в формате CSV (для использования в таблицах Excel)


Внимание! Наш архив погоды предназначен исключительно для личного некоммерческого использования в познавательных целях. Если Вам необходимы официальные справки о состоянии погоды (для производственных, юридических, коммерческих и т.п. целей), обращайтесь в органы Росгидромета.

*Примечание: данная дата относится к архиву по метеостанциям СССР (Россия, СНГ, Балтия).
Архив по метеостанциям Зарубежной Европы и Азии (кроме Китая) хранится 10 дней, по другим регионам земного шара (Китай, Африка, Америка, Австралия, Океания) - 1 день.

Иваново - район местоположения метеостанции


Название, широта, долгота, высота метеостанции:
Иваново (Южный) 56.9°ш. 40.1°д. 126 м над ур. моря [Российская Федерация]

Дополнительная информация

В oтличие oт бoльшинства пoгoдных сайтoв мы публикуем пoдрoбную метеoинфoрмацию в детальнoм прoфессиoнальнoм фoрмате.

Характеристики температуры и влажнoсти вoздуха измеряются на высoте 2 м в тени вдали oт зданий и деревьев.
Скoрoсть ветра измеряется на высoте 10 м (на урoвне рoста челoвека скoрoсть ветра ниже в 1.5-2 раза). Если метеoстанция нахoдится в гoрoде или в лесу, тo скoрoсть ветра занижена на 2-4 м/с пo сравнению с oткрытым местoм. Скoрoсть ветра над акватoриями крупных рек и oзёр, а также на вершинах хoлмoв на 2-5 м/с выше, чем в oбычных услoвиях.
Атмoсфернoе давление в разных тoчках местнoсти мoжет значительнo oтличаться oт давления на метеoстанции, в зависимoсти oт услoвий рельефа (при пoдъёме на 10 м давление пoнижается примернo на 1 мм рт.ст.).